Regional Weather Roundup
Issued by NWS

Home | Current Version | Previous Version | Graphics & Text | Print | Product List | Glossary On
Versions: 1 2 3 4 5 6 7 8 9 10 11 12 13 14 15 16 17 18 19 20 21 22 23 24 25 26 27 28 29 30 31 32 33 34 35 36 37 38 39 40 41 42 43 44 45 46 47 48 49
000
ASUS45 KSLC 122110
RWRUT

UTAH REGIONAL WEATHER ROUNDUP
NATIONAL WEATHER SERVICE SALT LAKE CITY UT
200 PM MST FRI FEB 12 2016

UTZ001>011-023>025-122200-

NORTHERN UTAH

CITY           SKY/WX    TMP DP  RH WIND       PRES   REMARKS
BRIGHAM CITY   CLOUDY    26  24  93 CALM      30.40F
HILL AFB       MOSUNNY   33  30  92 NW6       30.36F FOG     WCI  27
LOGAN          CLOUDY    23  22  96 CALM      30.39F FOG
OGDEN          CLOUDY    28  26  92 N7        30.38F FOG     WCI  21
PROVO AIRPORT  FOG       25  23  93 CALM      30.37F VSB 1/8
SALT LAKE CITY CLOUDY    31  27  85 W5        30.39F FOG     WCI  26
VERNAL         CLOUDY    32  22  66 E6        30.37F HAZE    WCI  26
WENDOVER       CLOUDY    30  27  86 CALM      30.39F
HEBER CITY     MOSUNNY   39  21  48 CALM      30.31F
WEST JORDAN    MOSUNNY   34  28  80 NW12      30.37F WCI  25

$$

UTZ012>022-026-027-122200-

SOUTHERN/CENTRAL UTAH

CITY           SKY/WX    TMP DP  RH WIND       PRES   REMARKS
BLANDING       SUNNY     46  28  48 CALM      30.44F
BRYCE CANYON   SUNNY     45  23  42 SE8       30.40F
CEDAR CITY     SUNNY     44  27  51 NE3       30.30F
DELTA          PTSUNNY   21  20  96 CALM      30.36F
HANKSVILLE     SUNNY     50  32  50 CALM      30.39F
MILFORD        MOSUNNY   23  17  78 CALM      30.34F
MOAB/CYNLANDS  SUNNY     44  31  60 NW9       30.36F
PRICE          SUNNY     44  27  51 SE3       30.37F
ST GEORGE      PTCLDY    61  28  29 CALM      30.25F
KANAB          SUNNY     66  30  26 E10       30.32F

$$

REGIONAL REPORTS     COLORADO/ARIZONA

CITY           SKY/WX    TMP DP  RH WIND       PRES   REMARKS
CRAIG, CO      SUNNY     33  23  66 CALM      30.36F
GRAND JUNCTION SUNNY     47  27  45 CALM      30.35F
RIFLE          SUNNY     40  20  44 CALM      30.36F
MONTROSE       SUNNY     48  24  39 E3        30.36F
CORTEZ         SUNNY     53  23  31 CALM      30.36F
PAGE, AZ       SUNNY     55  32  41 VRB7      30.33F
GRAND CANYON   SUNNY     66  10  11 SW5       30.35F
KINGMAN        SUNNY     72  21  14 N3        30.21F
FLAGSTAFF      SUNNY     61  15  16 E7        30.36F

$$

REGIONAL REPORTS    NEVADA/IDAHO/WYOMING

CITY           SKY/WX    TMP DP  RH WIND       PRES   REMARKS
LAS VEGAS, NV  MOSUNNY   70  23  17 CALM      30.16F
ELY            MOSUNNY   44  25  47 E3        30.31F
ELKO           MOSUNNY   33  21  61 E5        30.34F WCI  29
POCATELLO, ID  CLOUDY    42  26  53 CALM      30.31F
BURLEY         SUNNY     50  34  54 N8        30.25F
EVANSTON, WY   CLOUDY    41  18  39 SW5       30.33F
ROCK SPRINGS   SUNNY     48  20  32 W10       30.31F
KEMMERER       CLOUDY    45  16  31 NW5       30.33F

$$



USA.gov is the U.S. government's official web portal to all federal, state and local government web resources and services.